This is the latest recevied weather packets stored in our database for station/object W1GK. If no packets are shown the sender has not sent any weather packets the latest 10 day(s).
| Time | Temp. | Humidity | Pressure | Rain* | Wind** | Luminosity | Snow |
|---|---|---|---|---|---|---|---|
| 1788059996 | 35° C | 21% | 1010.6 hPa | 0 mm | - | 0 W/m² | - |
| 1788059396 | 35° C | 20% | 1010.3 hPa | 0 mm | - | 0 W/m² | - |
| 1788058797 | 35.56° C | 20% | 1010.2 hPa | 0 mm | - | 0 W/m² | - |
| 1788058196 | 35.56° C | 20% | 1009.9 hPa | 0 mm | - | 0 W/m² | - |
| 1788057595 | 35.56° C | 19% | 1009.8 hPa | 0 mm | - | 0 W/m² | - |
| 1788056996 | 36.11° C | 19% | 1009.8 hPa | 0 mm | - | 0 W/m² | - |
| 1788056396 | 36.11° C | 19% | 1009.7 hPa | 0 mm | - | 0 W/m² | - |
| 1788055796 | 36.11° C | 19% | 1009.7 hPa | 0 mm | - | 5 W/m² | - |
| 1788055198 | 36.67° C | 19% | 1009.7 hPa | 0 mm | - | 12 W/m² | - |
| 1788054597 | 36.67° C | 18% | 1009.8 hPa | 0 mm | - | 19 W/m² | - |
| 1788053995 | 36.67° C | 18% | 1009.8 hPa | 0 mm | - | 26 W/m² | - |
| 1788053396 | 37.22° C | 18% | 1009.8 hPa | 0 mm | - | 46 W/m² | - |
| 1788052797 | 37.22° C | 18% | 1009.9 hPa | 0 mm | - | 162 W/m² | - |
| 1788052196 | 37.22° C | 18% | 1009.9 hPa | 0 mm | - | 200 W/m² | - |
| 1788051594 | 37.22° C | 18% | 1009.9 hPa | 0 mm | - | 218 W/m² | - |
| 1788050994 | 37.22° C | 17% | 1010 hPa | 0 mm | - | 79 W/m² | - |
| 1788050396 | 37.78° C | 17% | 1009.8 hPa | 0 mm | - | 72 W/m² | - |
| 1788049795 | 37.78° C | 17% | 1009.9 hPa | 0 mm | - | 116 W/m² | - |
| 1788049194 | 38.89° C | 16% | 1009.8 hPa | 0 mm | - | 127 W/m² | - |
| 1788048594 | 38.89° C | 15% | 1009.8 hPa | 0 mm | - | 376 W/m² | - |
| 1788047995 | 39.44° C | 15% | 1009.9 hPa | 0 mm | - | 399 W/m² | - |
| 1788047395 | 39.44° C | 15% | 1010 hPa | 0 mm | - | 446 W/m² | - |
| 1788046796 | 39.44° C | 15% | 1010.2 hPa | 0 mm | - | 515 W/m² | - |
| 1788046195 | 40° C | 15% | 1010.1 hPa | 0 mm | - | 533 W/m² | - |
| 1788045596 | 39.44° C | 15% | 1010.1 hPa | 0 mm | - | 568 W/m² | - |
* Rain latest hour (hover to see other rain measurements)
** Current wind speed in m/s (hover to see current wind gust speed)